Regional Weather Roundup
Issued by NWS Northern Indiana

Home | Current Version | Previous Version | Text Only | Print | Product List | Glossary On
Versions: 1 2 3 4 5 6 7 8 9 10 11 12 13 14 15 16 17 18 19 20 21 22 23 24 25 26 27 28 29 30 31 32 33 34 35 36 37 38 39 40 41 42 43 44 45 46 47 48 49 50
000
ASUS43 KIWX 040110
RWRIWX

KIWX WEATHER ROUNDUP
NATIONAL WEATHER SERVICE NORTHERN INDIANA
900 PM EDT FRI JUL 03 2015

NOTE: "FAIR" INDICATES FEW OR NO CLOUDS BELOW 12,000 FEET WITH NO
SIGNIFICANT WEATHER AND/OR OBSTRUCTIONS TO VISIBILITY.

* THESE STATIONS ARE NOT UNDER NWS QUALITY CONTROL. THEY ALSO MAY NOT
  REPORT WEATHER SUCH AS PRECIPITATION OR FOG.

INZ001>027-040200-
NORTHERN INDIANA

CITY           SKY/WX    TMP DP  RH WIND       PRES   REMARKS
GARY*          MOCLDY    66  57  72 VRB3      29.93S
VALPARAISO     CLEAR     66  55  67 N5        29.93R
MICHIGAN CITY* CLEAR     63  54  72 NE3       29.94S
LAPORTE*       CLEAR     67  56  67 N5        29.93S
KNOX*            N/A     64  57  77 N7        29.91R
SOUTH BEND     CLEAR     68  55  63 N9        29.93R
GOSHEN         CLEAR     70  56  61 N6        29.91S
MONTICELLO*    PTCLDY    71  64  78 CALM      29.89S
LOGANSPORT*    CLEAR     68  59  73 CALM      29.91R
ROCHESTER*     CLEAR     72  61  68 CALM      29.90F
WARSAW*          N/A     68  61  77 CALM      29.91S
ANGOLA*          N/A     70  57  64 SE3       29.92S
FORT WAYNE     MOCLDY    70  60  70 NE6       29.90F
HUNTINGTON*    MOCLDY    69  59  71 CALM      29.90S
PERU/GRISSOM   CLEAR     69  62  79 NE6       29.89S
MARION*        MOCLDY    71  61  70 NE5       29.90S

$$
INZ028>050-040200-
CENTRAL INDIANA

CITY           SKY/WX    TMP DP  RH WIND       PRES   REMARKS
LAFAYETTE      PTCLDY    70  63  78 CALM      29.89S
KOKOMO*        PTCLDY    72  61  68 NE8       29.89S
MUNCIE*        MOCLDY    71  62  73 NE6       29.89S
INDIANAPOLIS   CLOUDY    71  62  73 N8        29.88R

$$
MIZ043>046-050>051-056>058-064>065-071>073-077>080-040200-
SOUTHWEST LOWER MICHIGAN

CITY           SKY/WX    TMP DP  RH WIND       PRES   REMARKS
BATTLE CREEK   CLEAR     70  55  59 W3        29.93R
BENTON HARBOR  CLEAR     64  57  78 NE3       29.93S
COLDWATER*     CLEAR     67  53  61 CALM      29.92S
HILLSDALE*     CLEAR     68  60  77 CALM      29.93S
HOLLAND        CLEAR     67  51  56 NW3       29.93F
GRAND RAPIDS   MOCLDY    71  50  47 NE3       29.92S
KALAMAZOO      CLEAR     72  51  47 CALM      29.92S
STURGIS*       PTCLDY    66  61  82 CALM      29.92S
THREE RIVERS*  FAIR      70  57  64 CALM      29.92S

$$
OHZ001>008-015>018-024>025-040200-
NORTHWEST OHIO

CITY           SKY/WX    TMP DP  RH WIND       PRES   REMARKS
DEFIANCE       CLEAR     69  56  62 E6        29.91S
FINDLAY        PTCLDY    68  54  60 NE9       29.89F
TOLEDO EXPRESS CLEAR     64  54  69 CALM      29.91S
TOLEDO METCALF CLEAR     66  52  60 E3        29.92S
LIMA           PTCLDY    67  58  72 NE7       29.90S

$$
AND FOR LAKE MICHIGAN COASTAL AND OPEN LAKE BUOY OBSERVATIONS

STATION/POSITION TEMP    WIND        PRES    VSBY  WAVE
                 AIR SEA DIR/SP/G                  HT/PER
                 (F)     (DEG/KT/KT) (MB)    (MI)  (FT/S)
CALUMET HARBOR    65      50/  4/  5   N/A
MICHIGAN CITY     63      20/  5/  5   N/A
BURNS HARBOR      66      40/  7/  8 1014.2R
SAINT JOSEPH      65      10/  4/  6   N/A
4 MI NW BRIDGMAN  62 63                N/A           1
MICHIGAN CITY     64 64   80/  4/  4   N/A           1/ 3

$$
&&



USA.gov is the U.S. government's official web portal to all federal, state and local government web resources and services.